Location: Unspecified
(41.1637°N, 24.2901°E)
Time: 11:57:29
(UTC+02:00)

ISS - Pass Details

Date: 07 May 2026
Orbit: 414 x 424 km, 51.6° (Epoch: 12 May)

Event Time Altitude Azimuth Distance (km) Brightness Sun altitude
Exits shadow 01:46:40 14° 349° (N) 1,279 -0.7 -28.7°
Maximum altitude 01:47:41 15° 10° (N) 1,208 -0.7 -28.6°
Drops below altitude 10° 01:49:47 10° 49° (NE) 1,498 -0.2 -28.4°
Sets 01:52:32 0° 73° (ENE) 2,363 0.6 -28.2°
